Location: Unspecified
(0.0000°N, 0.0000°E)
Time: 14:48:06
(UTC+00:00)

Vanguard 2 Rocket - Visible Passes

Search period start: 20 July 2017 00:00
Search period end: 30 July 2017 00:00
Orbit: 553 x 3329 km, 32.9° (Epoch: 19 July)

Date Brightness Start Highest point End Pass type
(mag) Time Alt. Az. Time Alt. Az. Time Alt. Az.
20 Jul 9.6 20:14:49 10° NNW 20:27:32 27° NNE 20:31:55 22° NE visible
20 Jul 9.8 22:32:33 10° NW 22:37:43 26° NW 22:37:43 26° NW visible
21 Jul 10.0 19:12:25 10° NNW 19:25:26 23° NNE 19:35:01 10° ENE visible
21 Jul 9.1 21:30:37 10° NW 21:41:34 42° N 21:41:34 42° N visible
22 Jul 10.4 18:09:35 10° NNW 18:22:36 21° N 18:33:07 10° NE visible
22 Jul 9.1 20:28:34 10° NW 20:43:20 38° NNE 20:45:26 36° NE visible
22 Jul 10.0 22:47:05 10° WNW 22:51:15 22° WNW 22:51:15 22° WNW visible
23 Jul 9.6 19:26:23 10° NW 19:41:37 31° NNE 19:49:20 18° ENE visible
23 Jul 9.1 21:44:45 10° NW 21:55:08 47° NW 21:55:08 47° NW visible
24 Jul 10.1 18:24:06 10° NNW 18:39:11 27° NNE 18:50:40 10° ENE visible
24 Jul 8.7 20:42:28 10° NW 20:58:44 56° NNE 20:59:04 56° NE visible
24 Jul 10.3 23:02:19 10° WNW 23:04:53 16° WNW 23:04:53 16° WNW visible
25 Jul 9.2 19:40:16 10° NW 19:57:20 44° NNE 20:03:02 31° ENE visible
25 Jul 9.3 21:59:22 10° WNW 22:08:51 41° WNW 22:08:51 41° WNW visible
26 Jul 9.9 18:38:09 10° NW 18:55:16 36° NNE 19:07:01 11° E visible
26 Jul 8.5 20:56:41 10° NW 21:12:50 78° N 21:12:50 78° N visible
26 Jul 10.6 23:18:28 10° W 23:18:39 10° W 23:18:39 10° W visible
27 Jul 8.8 19:54:15 10° NW 20:12:36 62° NNE 20:16:52 46° E visible
27 Jul 9.7 22:14:40 10° WNW 22:22:41 31° W 22:22:41 31° W visible
28 Jul 9.5 18:52:06 10° NW 19:10:51 49° NNE 19:20:55 20° E visible
28 Jul 8.7 21:11:22 10° WNW 21:26:45 67° WSW 21:26:45 67° WSW visible
29 Jul 8.6 20:08:32 10° NW 20:27:27 85° NE 20:30:49 60° ESE visible
29 Jul 10.1 22:30:53 10° W 22:36:40 22° W 22:36:40 22° W visible
